Location: Abraham Lincoln Continuation High School
(33.9711°N, 117.3662°W)
Time: 04:54:17
(UTC+00:00)

Milstar 3 Cent rocket - Pass Details

Date: 21 September 2020
Orbit: 707 x 5145 km, 28.3° (Epoch: 25 October)

Event Time Altitude Azimuth Distance (km) Brightness Sun altitude
Rises 01:55:36 0° 234° (SW) 5,820 7.4 -2.4°
Reaches altitude 10° 02:00:44 10° 225° (SW) 4,083 6.4 -3.5°
Maximum altitude 02:08:42 30° 168° (SSE) 1,874 3.9 -5.1°
Drops below altitude 10° 02:13:37 10° 107° (ESE) 2,467 4.0 -6.1°
Enters shadow 02:14:15 - 103° (ESE) 2,664 4.1 -6.3°
